Flag Weather past 2 weeks in Shantou, Guangdong, China

Now
73 °F

Fog.


Feels Like: 72 °F
Forecast: 71 / 76 °F
Wind: 6 mph from East

Location: Shantou Airport

Current Time: Nov 29, 2014 at 5:58:41 PM

Latest Report: Nov 29, 2014 at 5:00 PM


Visibility: 3 mi

Pressure: 29.92 "Hg

Humidity: 89%

Dew point: 70 °F

Location of ShantouLocation

Historic Weather in Shantou — Graph

°F

Shantou temperature yesterday

Maximum temperature yesterday: 79 °F (at 1:00 PM)
Minimum temperature yesterday: 68 °F (at 12:00 AM)
Average temperature yesterday: 73 °F

Past Weeks' High & Low Weather Summary

 TemperatureHumidityPressure
High88 °F (Nov 25, 2:00 PM)100% (Nov 20, 6:00 AM)30.21 "Hg (Nov 20, 6:00 AM)
Low57 °F (Nov 19, 6:00 AM)38% (Nov 25, 2:00 PM)29.83 "Hg (Nov 25, 3:00 PM)
Average70 °F77%30.05 "Hg
* Reported Nov 14 4:00 PM — Nov 29 4:00 PM, Shantou, Weather by CustomWeather, © 2014

Note: Actual official high and low records may vary slightly from our data, if they occured in-between our weather recording intervals... More about our weather records

Advertising

Shantou weather history for previous 24 hours

 ConditionsComfort  
Time TempWeatherWind HumidityBarometerVisibility
4:00 PM
Nov 29
73 °FFog.6 mph89%29.89 "Hg3 mi
3:00 PM73 °FBroken clouds.8 mph89%29.89 "Hg4 mi
2:00 PM73 °FBroken clouds.3 mph89%29.92 "Hg4 mi
1:00 PM75 °FBroken clouds.6 mph78%29.95 "Hg5 mi
12:00 PM75 °FBroken clouds.6 mph83%29.98 "Hg5 mi
11:00 AM75 °FPartly sunny.8 mph83%30.01 "Hg6 mi
10:00 AM75 °FBroken clouds.6 mph78%30.01 "Hg4 mi
9:00 AM73 °FFog.6 mph83%30.01 "Hg3 mi
8:00 AM72 °FFog.6 mph88%30.01 "Hg3 mi
7:00 AM72 °FFog.3 mph88%29.98 "Hg3 mi
6:00 AM72 °FFog.3 mph94%29.98 "Hg3 mi
5:00 AM72 °FFog.3 mph94%29.95 "Hg3 mi
4:00 AM72 °FPassing clouds.1 mph94%29.95 "Hg4 mi
3:00 AM72 °FPassing clouds.1 mph94%29.95 "Hg4 mi
2:00 AM73 °FPassing clouds.1 mph89%29.95 "Hg4 mi
1:00 AM72 °FFog.3 mph94%29.95 "Hg3 mi
12:00 AM72 °FFog.1 mph94%29.98 "Hg3 mi
11:00 PM
Nov 28
73 °FFog.1 mph89%29.98 "Hg3 mi
10:00 PM72 °FFog.No wind94%29.98 "Hg2 mi
9:00 PM72 °FFog.1 mph94%29.98 "Hg2 mi
8:00 PM73 °FFog.1 mph89%29.98 "Hg2 mi
7:00 PM75 °FFog.No wind83%29.95 "Hg3 mi
6:00 PM77 °FPassing clouds.1 mph79%29.95 "Hg4 mi
5:00 PM79 °FPartly sunny.3 mph74%29.95 "Hg4 mi
Weather by CustomWeather, © 2014

See weather overviewHow to use our weather pages